Location: Aranbee
(34.0885°N, 118.2342°W)
Time: 23:21:43
(UTC+00:00)

Explorer 7 - All Passes

Search period start: 25 November 2020 00:00
Search period end: 05 December 2020 00:00
Orbit: 484 x 678 km, 50.3° (Epoch: 25 November)

Date Brightness Start Highest point End Pass type
(mag) Time Alt. Az. Time Alt. Az. Time Alt. Az.
25 Nov - 08:57:38 10° S 09:01:03 20° SE 09:04:20 10° E night (unlit)
25 Nov - 10:36:49 10° WSW 10:41:20 57° NW 10:45:36 10° NE night (unlit)
25 Nov - 12:20:11 10° NW 12:22:32 14° NNW 12:24:50 10° NNE visible
25 Nov - 15:44:28 10° NNW 15:46:40 14° NNE 15:48:49 10° NE daylight
25 Nov - 17:23:53 10° NW 17:27:44 73° NE 17:31:28 10° SE daylight
25 Nov - 19:06:58 10° WSW 19:07:41 10° SW 19:08:23 10° SW daylight
26 Nov - 09:01:18 10° SSW 09:05:33 34° SE 09:09:36 10° ENE night (unlit)
26 Nov - 10:41:50 10° WSW 10:46:04 36° NW 10:50:04 10° NNE night (unlit)
26 Nov - 12:26:14 10° NW 12:27:33 11° NNW 12:28:51 10° N visible
26 Nov - 15:48:39 10° NNW 15:51:36 20° NNE 15:54:28 10° ENE daylight
26 Nov - 17:28:33 10° NW 17:32:22 60° SW 17:36:02 10° SE daylight
27 Nov - 09:05:28 10° SW 09:10:06 59° SE 09:14:30 10° ENE night (unlit)
27 Nov - 10:47:06 10° W 10:50:52 25° NNW 10:54:27 10° NNE night (unlit)
27 Nov - 15:52:57 10° NNW 15:56:27 29° NNE 15:59:49 10° E daylight
27 Nov - 17:33:28 10° WNW 17:36:53 31° SW 17:40:13 10° SSE daylight
28 Nov - 07:32:07 10° SSE 07:34:33 14° SE 07:36:56 10° E night (unlit)
28 Nov - 09:10:00 10° SW 09:14:43 82° NW 09:19:11 10° NE night (unlit)
28 Nov - 10:52:36 10° WNW 10:55:44 18° NNW 10:58:46 10° NNE night (unlit)
28 Nov - 14:18:12 10° N 14:19:53 12° NNE 14:21:33 10° NE daylight
28 Nov - 15:57:22 10° NW 16:01:13 48° NE 16:04:53 10° ESE daylight
28 Nov - 17:38:49 10° W 17:41:21 17° SW 17:43:49 10° S daylight
29 Nov - 07:35:11 10° S 07:39:00 24° SE 07:42:43 10° ENE night (unlit)
29 Nov - 09:14:48 10° WSW 09:19:22 50° NW 09:23:43 10° NE night (unlit)
29 Nov - 10:58:21 10° NW 11:00:42 14° NNW 11:02:59 10° NNE night (unlit)
29 Nov - 14:22:17 10° NNW 14:24:52 16° NNE 14:27:24 10° ENE daylight
29 Nov - 16:01:56 10° NW 16:05:53 86° NE 16:09:40 10° SE daylight
30 Nov - 07:39:01 10° SSW 07:43:30 41° SE 07:47:49 10° ENE night (unlit)
30 Nov - 09:19:52 10° W 09:24:07 33° NNW 09:28:10 10° NNE night (unlit)
30 Nov - 11:04:21 10° NNW 11:05:43 11° NNW 11:07:05 10° N night (unlit)
30 Nov - 14:26:30 10° NNW 14:29:47 23° NNE 14:32:54 10° E daylight
30 Nov - 16:06:38 10° WNW 16:10:28 50° SW 16:14:08 10° SSE daylight
01 Dec - 07:43:17 10° SW 07:48:04 70° SE 07:52:38 10° NE night (unlit)
01 Dec - 09:25:11 10° W 09:28:56 23° NNW 09:32:33 10° NNE night (unlit)
01 Dec - 12:51:53 10° N 12:53:02 11° NNE 12:54:10 10° NNE visible
01 Dec - 14:30:52 10° NNW 14:34:36 34° NNE 14:38:10 10° E daylight
01 Dec - 16:11:38 10° WNW 16:14:58 27° SW 16:18:11 10° S daylight
02 Dec - 06:09:24 10° SSE 06:12:28 17° SE 06:15:28 10° E night (unlit)
02 Dec - 07:47:53 10° SW 07:52:41 72° NW 07:57:16 10° NE night (unlit)
02 Dec - 09:30:43 10° WNW 09:33:50 17° NNW 09:36:51 10° NNE night (unlit)
02 Dec - 12:55:51 10° NNW 12:58:04 14° NNE 13:00:13 10° NE visible
02 Dec - 14:35:19 10° NW 14:39:21 57° NE 14:43:08 10° ESE daylight
02 Dec - 16:17:10 10° W 16:19:23 15° SW 16:21:32 10° SSW daylight
03 Dec - 06:12:46 10° S 06:16:55 28° SE 06:20:56 10° ENE night (unlit)
03 Dec - 07:52:45 10° WSW 07:57:21 45° NW 08:01:47 10° NE night (unlit)
03 Dec - 09:36:27 10° NW 09:38:48 14° NNW 09:41:05 10° NNE night (unlit)
03 Dec - 13:00:02 10° NNW 13:03:01 18° NNE 13:05:53 10° ENE visible
03 Dec - 14:39:54 10° NW 14:43:59 80° SW 14:47:50 10° SE daylight
04 Dec - 06:16:44 10° SSW 06:21:25 48° SE 06:25:56 10° ENE night (unlit)
04 Dec - 07:57:52 10° W 08:02:07 31° NNW 08:06:12 10° NNE night (unlit)
04 Dec - 09:42:23 10° NNW 09:43:50 11° NNW 09:45:16 10° N night (unlit)
04 Dec - 11:25:33 10° N 11:26:06 10° N 11:26:40 10° NNE visible
04 Dec - 13:04:19 10° NNW 13:07:54 26° NNE 13:11:18 10° E visible
04 Dec - 14:44:40 10° WNW 14:48:31 42° SW 14:52:10 10° SSE daylight
